Overview Statistics Trail Chart Weather Telemetry Raw packets
 

This is the latest recevied weather packets stored in our database for station/object DN9EM-3. If no packets are shown the sender has not sent any weather packets the latest 10 day(s).

<< 3 4 5 6 7 8 9 >>
Time Temp. Humidity Pressure Rain* Wind** Luminosity Snow
1788502835 17.78° C 93% 1008.4 hPa 0.25 mm - - -
1788502232 17.78° C 93% 1008.4 hPa 0 mm - - -
1788501630 17.78° C 93% 1008.6 hPa 0 mm - - -
1788501027 17.78° C 93% 1008.8 hPa 0.25 mm - - -
1788500425 17.78° C 93% 1008.9 hPa 0.51 mm - - -
1788499822 17.78° C 93% 1009.2 hPa 1.02 mm - - -
1788499220 17.22° C 93% 1009.1 hPa 1.02 mm - - -
1788498617 17.22° C 93% 1009.2 hPa 1.52 mm - - -
1788498075 17.22° C 93% 1009.4 hPa 1.52 mm - - -
1788497472 17.22° C 93% 1009.3 hPa 1.52 mm - - -
1788496870 17.22° C 93% 1009.5 hPa 1.27 mm - - -
1788496267 16.67° C 93% 1009.6 hPa 1.02 mm - - -
1788495664 16.67° C 93% 1009.9 hPa 1.52 mm - - -
1788495062 16.67° C 92% 1010.1 hPa 1.78 mm - - -
1788494459 16.67° C 92% 1010.4 hPa 1.78 mm - - -
1788493857 16.67° C 92% 1010.6 hPa 1.52 mm - - -
1788493254 16.67° C 92% 1010.7 hPa 1.52 mm - - -
1788492652 16.67° C 91% 1011 hPa 1.52 mm - - -
1788492049 16.67° C 91% 1011.4 hPa 1.02 mm - - -
1788491447 16.67° C 90% 1011.4 hPa 0 mm - - -
1788490844 16.67° C 89% 1011.6 hPa 0 mm - - -
1788490241 16.67° C 88% 1012 hPa 0 mm - - -
1788489639 17.22° C 87% 1012.1 hPa 0 mm - - -
1788489036 17.22° C 86% 1012.4 hPa 0 mm - - -
1788488434 17.22° C 85% 1012.6 hPa 0 mm - - -

* Rain latest hour (hover to see other rain measurements)
** Current wind speed in m/s (hover to see current wind gust speed)